Weather in Chisasibi

Canada     53°42′11″N   78°33′55″W
temp.,
°C
wind,
m/s
gust,
m/s
humid.,
%
clouds,
%
prec.,
mm/h
press.,
hPa
HPBL,
m
9 may, sun
sun923:00+1nw229715 0.0 101814
02:00−1wsw229945 0.0 101725
05:00−1nw119847 0.0 101816
08:00+2nnw2292100 0.0 1018227
11:00+5n3489100 0.3 1017621
14:00+3ne2597100 3.1 1017486
17:00+6nw4580100 1.1 1016472
20:00+4nw4877100 1.1 1016281
10 may, mon
mon1023:00+4ne3578100 0.0 101682
02:00+2ne41086100 0.0 1017196
05:00+2ne51088100 0.0 1017241
08:00+4ne5980100 0.0 1018389
11:00+8ne6761100 0.0 1019975
14:00+10ne6749100 0.0 10191505
17:00+11nne5844100 0.0 10181783
20:00+6n8135790 0.0 1019525
11 may, tue
tue1123:00+1n6117667 0.0 1021293
02:00−1n5108451 0.0 1021252
05:00−1n48875 0.0 1022228
08:00+3n56725 0.0 1022468
11:00+7n44535 0.0 10221000
14:00+10nnw554421 0.0 10211449
17:00+9nw5644100 0.0 10211330
20:00+6nnw4656100 0.0 1021578
12 may, wed
wed1223:00+2nnw357036 0.0 1022116
02:000nnw227431 0.0 102219
05:000w11715 0.0 102210
08:00+5sw34496 0.0 1022257
11:00+9sw5754100 0.0 1021581
14:00+10wsw696331 0.1 1020662
17:00+11wnw696473 0.0 1019782
20:00+7nnw578199 0.0 1020496
13 may, thu
thu1323:00+1nnw588716 0.0 1022411
02:000n5780100 0.0 1022592
05:00+1n467499 0.0 1023694
08:00+2n456775 0.0 1024775
11:00+6nnw34535 0.0 1023989
14:00+9nnw34415 0.0 10211187
17:00+10nw543778 0.0 10211254
20:00+7nnw35465 0.0 1020352